Tracking 30692 objects as of 16-Jun-2025
HD Live streaming from Space Station
objects crossing your sky now

STARLINK-4787

Track STARLINK-4787 now!
10-day predictions
STARLINK-4787 is classified as:


NORAD ID: 53904
Int'l Code: 2022-119U
Perigee: 545.9 km
Apogee: 547.8 km
Inclination: 53.2 °
Period: 95.4 minutes
Semi major axis: 6917 km
RCS: Unknown
Launch date: September 24, 2022
Source: United States (US)
Launch site: AIR FORCE EASTERN TEST RANGE (AFETR)
Your satellite tracking list
Your tracking list is empty




NASA's NSSDC Master Catalog

Two Line Element Set (TLE):
1 53904U 22119U   25166.49988988 -.00000023  00000-0  16643-4 0  9999
2 53904  53.2187  83.1798 0001367  94.4313 265.6836 15.08838797151353
Source of the keplerian elements: AFSPC